[[{"header":{"parameterUnit":"m.s-1","parameterCategory":1,"la1":30.2991,"la2":30.254,"lo1":-89.0895,"lo2":-89.0444,"dx":0.0017,"dy":0.0017,"nx":28,"ny":28,"refTime":"2022-12-14T15:00:00:Z","depth":0,"parameterNumber":2,"parameterNumberName":"U-component_of_WINDS"},"data":[0,0,0,0,0,0,0,0,0,0,0,0,0,0,0,0,0,0,0,0,0,0,0,0,0,0,0,0,0,0,0,0,0,0,0,0,0,0,0,0,0,0,0,0,0,0,0,0,0,0,0,0,0,0,0,0,0,0,-0.1005,-0.1005,0,-0.1015,-0.1015,-0.1015,-0.0986,-0.0985,-0.0984,-0.0983,-0.0995,-0.0996,-0.0997,0,0,0,0,0,0,0,0,0,0,0,0,0,-0.0963,-0.0964,-0.1005,-0.1005,-0.1006,-0.1015,-0.1015,-0.1015,-0.0986,-0.0985,-0.0984,-0.0983,-0.0994,-0.0996,-0.0997,0,0,0,0,0,0,0,0,0,0,0,0,0,-0.0978,-0.0964,-0.1005,-0.0992,-0.0991,-0.1015,-0.1015,-0.1015,-0.0986,-0.0985,-0.0984,-0.0983,-0.0994,-0.0996,-0.0997,-0.1034,0,0,-0.1002,-0.1003,0,0,0,0,0,0,0,0,-0.0977,-0.098,-0.0994,-0.0993,-0.0992,-0.0998,-0.1004,-0.1022,-0.0987,-0.0988,-0.0983,-0.0982,-0.0997,-0.0998,-0.1003,-0.1035,-0.1035,-0.1003,-0.1004,-0.1004,-0.1005,0,0,0,0,0,0,0,-0.0976,-0.0979,-0.1009,-0.0994,-0.0993,-0.0986,-0.0987,-0.1007,-0.1,-0.0988,-0.0986,-0.0987,-0.0996,-0.1002,-0.1003,-0.1036,-0.1002,-0.1004,-0.1005,-0.1006,-0.1099,-0.11,0,0,0,0,0,0,-0.0977,-0.0978,-0.1009,-0.1009,-0.0981,-0.0988,-0.0989,-0.0997,-0.1,-0.0999,-0.0989,-0.0986,-0.0999,-0.1001,-0.1003,-0.1048,-0.1004,-0.1006,-0.1007,-0.1097,-0.1099,-0.11,0,0,0,0,0,0,-0.0976,-0.098,-0.1008,-0.0993,-0.0996,-0.099,-0.1,-0.0998,-0.1004,-0.1,-0.0999,-0.0995,-0.0998,-0.1001,-0.1027,-0.1048,-0.1007,-0.1008,-0.1095,-0.1098,-0.11,-0.1136,0,0,0,0,0,0,-0.0975,-0.098,-0.0993,-0.0994,-0.0997,-0.1032,-0.1001,-0.0999,-0.1006,-0.1003,-0.1006,-0.1005,-0.0997,-0.1024,-0.1029,-0.1049,-0.1009,-0.1094,-0.1096,-0.1099,-0.1133,-0.1139,-0.1144,0,0,0,0,0,-0.0973,-0.1004,-0.0994,-0.0998,-0.1014,-0.1033,-0.1035,-0.1025,-0.1008,-0.1022,-0.102,-0.1005,-0.1044,-0.1027,-0.1032,-0.1053,-0.1092,-0.1096,-0.1099,-0.113,-0.1138,-0.1144,0,0,0,0,0,0,-0.1006,-0.1003,-0.0993,-0.1024,-0.1029,-0.1028,-0.1045,-0.1033,-0.1043,-0.104,-0.1027,-0.1028,-0.1056,-0.1057,-0.1038,-0.1089,-0.1065,-0.107,-0.1088,-0.1095,-0.1101,-0.1101,-0.1011,0,0,0,0,0,-0.1017,-0.1032,-0.1028,-0.1056,-0.1059,-0.1052,-0.1059,-0.1051,-0.1056,-0.1058,-0.1057,-0.1063,-0.1076,-0.1086,-0.1098,-0.1132,-0.1133,-0.1149,-0.1155,-0.116,-0.1164,-0.1183,-0.119,-0.1111,-0.1111,-0.1111,0,0,-0.104,-0.104,-0.105,-0.1063,-0.1066,-0.1082,-0.1054,-0.1072,-0.1084,-0.1061,-0.1085,-0.1085,-0.109,-0.1121,-0.1134,-0.1122,-0.1186,-0.1164,-0.1168,-0.1169,-0.1187,-0.1194,-0.1201,-0.1113,-0.1113,-0.1113,0,0,-0.1089,-0.1091,-0.1114,-0.1117,-0.1121,-0.1116,-0.1122,-0.1123,-0.1122,-0.1146,-0.1129,-0.1143,-0.1166,-0.1171,-0.1176,-0.1227,-0.1214,-0.1231,-0.1262,-0.128,-0.1286,-0.1292,-0.1311,-0.1318,-0.1235,-0.1235,-0.1235,0,-0.1117,-0.114,-0.1128,-0.1147,-0.1153,-0.1132,-0.1156,-0.116,-0.1168,-0.1174,-0.116,-0.1189,-0.1191,-0.1222,-0.1234,-0.1239,-0.1246,-0.1231,-0.1286,-0.1292,-0.1297,-0.1315,-0.1322,-0.1237,-0.1237,-0.1237,-0.1237,0,-0.1175,-0.1191,-0.1209,-0.1218,-0.1226,-0.1247,-0.1238,-0.1248,-0.1239,-0.1236,-0.1261,-0.1262,-0.1274,-0.1281,-0.1272,-0.1311,-0.1304,-0.1288,-0.1265,-0.1307,-0.1323,-0.133,-0.124,-0.124,-0.1239,-0.1238,0,0,-0.1246,-0.1247,-0.1254,-0.1258,-0.126,-0.1273,-0.1293,-0.1305,-0.1314,-0.132,-0.1338,-0.1357,-0.1343,-0.1349,-0.1341,-0.1357,-0.1398,-0.1339,-0.1339,-0.1351,-0.1442,-0.1454,-0.1462,-0.1389,-0.139,-0.1391,-0.1442,0,-0.1296,-0.1331,-0.132,-0.1356,-0.1371,-0.1351,-0.1369,-0.1373,-0.137,-0.1383,-0.1379,-0.1394,-0.1374,-0.1377,-0.1392,-0.139,-0.1416,-0.1386,-0.1406,-0.1407,-0.1406,-0.1471,-0.1484,-0.1532,-0.1448,-0.1449,-0.145,0,-0.1359,-0.1367,-0.1404,-0.1405,-0.141,-0.1427,-0.1437,-0.1449,-0.1453,-0.1449,-0.1456,-0.1444,-0.1465,-0.144,-0.1468,-0.1448,-0.1455,-0.1455,-0.1457,-0.1459,-0.1432,-0.1476,-0.1547,-0.1555,-0.146,-0.1459,-0.1458,0,-0.1409,-0.1429,-0.1454,-0.1457,-0.1458,-0.147,-0.1471,-0.1474,-0.1481,-0.149,-0.1495,-0.1506,-0.1512,-0.1521,-0.1512,-0.1494,-0.1542,-0.1516,-0.1541,-0.1541,-0.1553,-0.1552,-0.1627,-0.1556,-0.1555,-0.1555,-0.1555,0,-0.1466,-0.149,-0.1476,-0.1492,-0.1518,-0.1505,-0.1531,-0.153,-0.1532,-0.1547,-0.153,-0.1545,-0.1532,-0.1546,-0.1539,-0.1564,-0.1567,-0.1565,-0.1563,-0.1567,-0.1568,-0.1573,-0.157,-0.1557,-0.1557,-0.1556,-0.1556,0,-0.1526,-0.1518,-0.1544,-0.1543,-0.1543,-0.1562,-0.1561,-0.1575,-0.1571,-0.159,-0.1594,-0.1587,-0.1602,-0.1594,-0.161,-0.1605,-0.1638,-0.1631,-0.1636,-0.1635,-0.166,-0.1658,-0.1742,-0.1752,-0.1673,-0.1674,-0.1675,0,-0.1564,-0.1582,-0.1582,-0.159,-0.1592,-0.1607,-0.1614,-0.1602,-0.1611,-0.1617,-0.1631,-0.1644,-0.1654,-0.1679,-0.1676,-0.1688,-0.1682,-0.171,-0.1683,-0.1687,-0.1683,-0.1683,-0.1685,-0.1716,-0.1717,-0.1717,-0.1718,0,-0.1632,-0.1627,-0.1638,-0.1648,-0.1658,-0.1665,-0.1671,-0.1679,-0.1667,-0.1678,-0.1693,-0.1701,-0.1716,-0.173,-0.174,-0.1741,-0.1728,-0.1726,-0.1732,-0.1737,-0.174,-0.174,-0.1652,-0.1725,-0.1724,-0.1723,-0.1723,-0.1723,-0.1683,-0.1698,-0.17,-0.1713,-0.1716,-0.1722,-0.1736,-0.1733,-0.1745,-0.1757,-0.1749,-0.1767,-0.177,-0.1782,-0.1785,-0.1799,-0.1788,-0.1797,-0.1799,-0.1802,-0.1806,-0.1737,-0.1801,-0.18,-0.18,-0.18,-0.18,0,-0.175,-0.1751,-0.1763,-0.1772,-0.1782,-0.1768,-0.1774,-0.1784,-0.18,-0.1804,-0.1814,-0.1831,-0.1844,-0.1842,-0.1854,-0.1865,-0.186,-0.1869,-0.1869,-0.1869,-0.1815,-0.1809,-0.1874,-0.1874,-0.1874,-0.1874,-0.1874,-0.1874,-0.1787,-0.1812,-0.1807,-0.1833,-0.1833,-0.185,-0.1855,-0.1861,-0.1864,-0.1884,-0.1895,-0.1893,-0.1894,-0.1906,-0.1918,-0.1916,-0.1922,-0.1934,-0.1931,-0.188,-0.1873,-0.1866,-0.186,-0.1935,-0.1935,-0.1984,-0.1985,-0.1985]},{"header":{"parameterUnit":"m.s-1","parameterCategory":1,"la1":30.2991,"la2":30.254,"lo1":-89.0895,"lo2":-89.0444,"dx":0.0017,"dy":0.0017,"nx":28,"ny":28,"refTime":"2022-12-14T15:00:00:Z","depth":0,"parameterNumber":3,"parameterNumberName":"V-component_of_WINDS"},"data":[0,0,0,0,0,0,0,0,0,0,0,0,0,0,0,0,0,0,0,0,0,0,0,0,0,0,0,0,0,0,0,0,0,0,0,0,0,0,0,0,0,0,0,0,0,0,0,0,0,0,0,0,0,0,0,0,0,0,-2.8128,-2.8129,0,-2.8236,-2.8237,-2.8238,-2.8215,-2.8213,-2.8211,-2.821,-2.832,-2.8324,-2.8329,0,0,0,0,0,0,0,0,0,0,0,0,0,-2.7901,-2.7906,-2.8128,-2.8129,-2.813,-2.8236,-2.8237,-2.8239,-2.8216,-2.8213,-2.8211,-2.8209,-2.8318,-2.8324,-2.8329,0,0,0,0,0,0,0,0,0,0,0,0,0,-2.8004,-2.7907,-2.8127,-2.8132,-2.8133,-2.8235,-2.8237,-2.8239,-2.8216,-2.8213,-2.821,-2.8207,-2.8316,-2.8323,-2.833,-2.8435,0,0,-2.8352,-2.8355,0,0,0,0,0,0,0,0,-2.7998,-2.8012,-2.813,-2.8132,-2.8133,-2.8209,-2.8198,-2.8305,-2.8217,-2.8185,-2.8209,-2.8206,-2.8285,-2.8295,-2.8322,-2.844,-2.8445,-2.8353,-2.8357,-2.836,-2.8362,0,0,0,0,0,0,0,-2.7991,-2.8007,-2.817,-2.8131,-2.8134,-2.8128,-2.8139,-2.8218,-2.825,-2.8187,-2.8186,-2.8199,-2.8286,-2.8315,-2.8324,-2.8446,-2.8353,-2.8359,-2.8363,-2.8366,-2.8656,-2.866,0,0,0,0,0,0,-2.7982,-2.8001,-2.8167,-2.8174,-2.8057,-2.8135,-2.8147,-2.8188,-2.825,-2.8256,-2.8201,-2.8198,-2.8304,-2.8316,-2.8328,-2.8455,-2.836,-2.8367,-2.8371,-2.8653,-2.8657,-2.8661,0,0,0,0,0,0,-2.7977,-2.7997,-2.8163,-2.8087,-2.8108,-2.8142,-2.8188,-2.8192,-2.8221,-2.826,-2.8266,-2.8225,-2.8302,-2.8318,-2.8409,-2.8458,-2.837,-2.8377,-2.8649,-2.8654,-2.8659,-2.871,0,0,0,0,0,0,-2.7971,-2.7995,-2.8036,-2.8088,-2.8112,-2.8242,-2.8191,-2.8196,-2.8233,-2.8229,-2.8284,-2.829,-2.8301,-2.8398,-2.8416,-2.8467,-2.8382,-2.8645,-2.8651,-2.8657,-2.8704,-2.8716,-2.8726,0,0,0,0,0,-2.7963,-2.8045,-2.8038,-2.8058,-2.8163,-2.8245,-2.8258,-2.8269,-2.8237,-2.8278,-2.8303,-2.8289,-2.845,-2.8407,-2.8427,-2.8481,-2.8642,-2.8649,-2.8657,-2.8699,-2.8713,-2.8726,0,0,0,0,0,0,-2.7997,-2.8052,-2.8045,-2.8146,-2.8191,-2.8241,-2.8292,-2.8284,-2.8339,-2.8333,-2.8343,-2.8356,-2.8449,-2.8474,-2.8425,-2.8586,-2.8541,-2.8553,-2.8566,-2.8581,-2.8592,-2.8584,-2.8388,0,0,0,0,0,-2.8017,-2.8079,-2.8123,-2.8209,-2.8232,-2.8258,-2.8294,-2.8299,-2.8345,-2.8364,-2.8396,-2.8442,-2.8503,-2.8543,-2.8601,-2.8707,-2.8719,-2.8754,-2.8765,-2.8774,-2.8785,-2.8843,-2.8859,-2.8686,-2.8686,-2.8686,0,0,-2.8057,-2.8095,-2.8134,-2.8217,-2.8252,-2.8316,-2.8274,-2.8344,-2.8392,-2.8375,-2.8463,-2.8488,-2.854,-2.8639,-2.8684,-2.8662,-2.8835,-2.8784,-2.8791,-2.8796,-2.8853,-2.8869,-2.8884,-2.8691,-2.869,-2.8689,0,0,-2.8165,-2.8199,-2.8275,-2.8311,-2.8365,-2.8382,-2.84,-2.8452,-2.8468,-2.8557,-2.8545,-2.8602,-2.8707,-2.8744,-2.8777,-2.8899,-2.8888,-2.8918,-2.8977,-2.9034,-2.9048,-2.906,-2.9104,-2.912,-2.8928,-2.8928,-2.8928,0,-2.8209,-2.8305,-2.8315,-2.8386,-2.8423,-2.8411,-2.8488,-2.8522,-2.8592,-2.8618,-2.8593,-2.8725,-2.8759,-2.8867,-2.8897,-2.8923,-2.8945,-2.8912,-2.9045,-2.9057,-2.9069,-2.9111,-2.9128,-2.8931,-2.8931,-2.8931,-2.893,0,-2.8357,-2.8424,-2.8478,-2.8547,-2.859,-2.8664,-2.8685,-2.8727,-2.8728,-2.8747,-2.8838,-2.8878,-2.8945,-2.897,-2.8972,-2.9079,-2.9064,-2.9042,-2.8998,-2.9088,-2.9128,-2.9145,-2.8936,-2.8935,-2.8934,-2.8933,0,0,-2.8489,-2.8563,-2.8583,-2.8614,-2.8673,-2.8725,-2.8797,-2.8863,-2.89,-2.8948,-2.901,-2.9099,-2.9079,-2.9116,-2.9122,-2.9171,-2.9267,-2.9143,-2.9145,-2.9165,-2.9388,-2.9405,-2.9424,-2.9259,-2.9262,-2.9265,-2.9384,0,-2.8603,-2.8732,-2.8743,-2.8859,-2.8921,-2.8911,-2.8974,-2.9017,-2.9038,-2.9093,-2.9116,-2.9179,-2.9148,-2.917,-2.9219,-2.9245,-2.9312,-2.9236,-2.9317,-2.932,-2.9305,-2.9445,-2.9463,-2.9574,-2.94,-2.9402,-2.9404,0,-2.8752,-2.8806,-2.8929,-2.898,-2.9006,-2.9063,-2.9124,-2.9178,-2.9226,-2.9238,-2.928,-2.9278,-2.9353,-2.9305,-2.9409,-2.9358,-2.9391,-2.9409,-2.9413,-2.9422,-2.9368,-2.9458,-2.9609,-2.9626,-2.9429,-2.9427,-2.9425,0,-2.8838,-2.8941,-2.9028,-2.9055,-2.9116,-2.9156,-2.9183,-2.9229,-2.9268,-2.9321,-2.9347,-2.9408,-2.9441,-2.9489,-2.9504,-2.9467,-2.9608,-2.9561,-2.9619,-2.9619,-2.965,-2.9648,-2.981,-2.967,-2.967,-2.967,-2.9669,0,-2.8964,-2.904,-2.9067,-2.9121,-2.9205,-2.9217,-2.93,-2.9325,-2.9366,-2.9424,-2.9418,-2.9473,-2.9489,-2.9546,-2.9558,-2.9643,-2.9658,-2.967,-2.9672,-2.9671,-2.9669,-2.9694,-2.9687,-2.9674,-2.9673,-2.9672,-2.9672,0,-2.9074,-2.9095,-2.919,-2.924,-2.9254,-2.9314,-2.9357,-2.9409,-2.9428,-2.9502,-2.952,-2.955,-2.9618,-2.9637,-2.9718,-2.9726,-2.9826,-2.9821,-2.981,-2.981,-2.9868,-2.9863,-3.0052,-3.0078,-2.992,-2.9922,-2.9923,0,-2.9154,-2.9212,-2.9268,-2.9307,-2.9336,-2.9398,-2.9438,-2.9452,-2.9493,-2.9553,-2.9598,-2.9665,-2.9719,-2.9827,-2.9857,-2.9919,-2.9916,-2.9978,-2.9925,-2.9922,-2.9918,-2.9914,-2.9921,-2.9988,-2.9989,-2.9991,-2.9992,0,-2.9293,-2.9301,-2.9358,-2.942,-2.9468,-2.9517,-2.9564,-2.9596,-2.9617,-2.9664,-2.9733,-2.9775,-2.9858,-2.9925,-2.9988,-3.0015,-3.0008,-3.0008,-3.0025,-3.0025,-3.0016,-3.0023,-2.9838,-3.0004,-3.0003,-3.0002,-3.0001,-3.0001,-2.9391,-2.9442,-2.949,-2.9555,-2.9592,-2.9636,-2.9688,-2.9714,-2.9772,-2.9841,-2.9845,-2.992,-2.9967,-3.0051,-3.0082,-3.0141,-3.0123,-3.0148,-3.0154,-3.016,-3.0165,-3.0006,-3.0153,-3.0152,-3.0152,-3.0152,-3.0152,0,-2.953,-2.9561,-2.962,-2.9687,-2.9738,-2.9726,-2.9778,-2.9821,-2.9887,-2.9932,-2.9986,-3.0066,-3.013,-3.0165,-3.0229,-3.027,-3.0268,-3.0286,-3.0284,-3.0291,-3.0177,-3.0157,-3.0287,-3.0287,-3.0287,-3.0287,-3.0287,-3.0287,-2.9609,-2.9696,-2.9709,-2.9814,-2.9844,-2.9918,-2.9949,-2.999,-3.0026,-3.0116,-3.0169,-3.0191,-3.0232,-3.03,-3.0358,-3.0367,-3.0391,-3.0412,-3.0418,-3.0312,-3.0298,-3.0285,-3.0266,-3.0417,-3.0417,-3.0527,-3.0528,-3.0529]}]]